Skip Page Navigation
NASA JPL Caltech
NASA Logo - Jet Propulsion Laboratory + View the NASA Portal
+ Center for Near-Earth Object Studies
JPL Home Earth Solar System Stars & Galaxies Technology
JPL Solar System Dynamics
BODIES ORBITS EPHEMERIDES TOOLS PHYSICAL DATA DISCOVERY FAQ SITE MAP
IMPORTANT: The SSD Announcement email list is now available. Major changes are coming in the near future, including possible hostname and/or URL changes. To be notified of such changes, subscribe to this email list.

Please visit this page for more details.


JPL Small-Body Database Browser
Search: [ help ]  
300189 (2006 WU71)
Classification: Main-belt Asteroid          SPK-ID: 2300189
Ephemeris | Orbit Diagram | Orbital Elements | Mission Design | Physical Parameters | Discovery Circumstances | Close-Approach Data ]

[ show orbit diagram ]
Orbital Elements at Epoch 2458600.5 (2019-Apr-27.0) TDB
Reference: JPL 12 (heliocentric ecliptic J2000)
 Element Value Uncertainty (1-sigma)   Units 
e .009271455680931988 7.4731e-08  
a 3.011373600229102 4.8666e-08 au
q 2.983453783355849 2.1256e-07 au
i 2.065139460882382 7.8597e-06 deg
node 14.0593305668042 0.00020087 deg
peri 187.3670812425328 0.00046773 deg
M 353.3834725353029 0.00041918 deg
tp 2458635.581083940898
(2019-Jun-01.08108394)
0.0022223 TDB
period 1908.733891925506
5.23
4.627e-05
1.267e-07
d
yr
n .1886066997201148 4.572e-09 deg/d
Q 3.039293417102354 4.9117e-08 au
  Orbit Determination Parameters
   # obs. used (total)      170  
   data-arc span      8564 days (23.45 yr)  
   first obs. used      1995-10-26  
   last obs. used      2019-04-07  
   planetary ephem.      DE431  
   SB-pert. ephem.      SB431-N16  
   condition code      0  
   norm. resid. RMS      .64639  
   source      ORB  
   producer      Otto Matic  
   solution date      2019-Jul-14 12:23:37  

Additional Information
 Earth MOID = 1.97711 au 
 Jupiter MOID = 1.91885 au 
 T_jup = 3.248 
[ show covariance matrix ]

Ephemeris | Orbit Diagram | Orbital Elements | Mission Design | Physical Parameters | Discovery Circumstances | Close-Approach Data ]

Physical Parameter Table
Parameter Symbol Value Units Sigma Reference Notes
absolute magnitude H 16.5   n/a MPO433935  

300189 (2006 WU71)          Discovered 2006-Nov-18 by Spacewatch at Kitt Peak
Reference: 20111012/Numbers.arcLast Updated: 2011-10-13

[ hide close-approach data ]
Close-Approach Data   ...sorted by Date/Time (TDB)
Date/Time (TDB) Time Uncertainty
(days_HH:MM)
Body Nominal Distance (au) Minimum Distance (au) Maximum Distance (au) V-relative (km/s) V-infinity (km/s) JD (TDB) Time Uncertainty (minutes) Semi-major axis (km) Semi-minor axis (km) range-LOV angle (deg) N-sigma BP Orbit Ref. Reference Modified
1927-Jun-27 05:01 00:06 Jupiter 1.92745051461653 1.9274497995536 1.9274512296821 3.39711246099924 3.26519042635834 2425058.708741401 6.18229474518395 300.129412997875 24.0476832761903 -87.423175332123 2059283.95936834 T 12 CATAB v2.0e-lin.ifort 2019-Jul-14 12:23:39 2019-Jul-14 12:23
1965-Jan-02 00:23 00:03 Jupiter 1.99272947571419 1.99272831747594 1.99273063395268 3.55002885126003 3.42820535349479 2438762.515991695 3.42288930816657 94.8715893715743 39.6742741239768 71.3181410712279 1822598.4594031 T 12 CATAB v2.0e-lin.ifort 2019-Jul-14 12:23:39 2019-Jul-14 12:23
1974-Mar-13 12:57 00:03 Jupiter 1.99203691869877 1.9920362214387 1.99203761595895 3.58214025077685 3.46140438617142 2442120.039655464 2.85952931154094 115.086923259875 26.2719478981159 -84.9467687533156 2199217.10134443 T 12 CATAB v2.0e-lin.ifort 2019-Jul-14 12:23:39 2019-Jul-14 12:23
2011-Sep-16 13:37 < 00:01 Jupiter 1.92309693653233 1.92309619474537 1.92309767831917 3.35545216782335 3.22151594774457 2455821.067131943 0.376509422015181 70.2631995227306 26.5819516151135 -84.6907828868389 1918493.71656597 T 12 CATAB v2.0e-lin.ifort 2019-Jul-14 12:23:39 2019-Jul-14 12:23
2058-May-29 03:41 00:03 Jupiter 1.91249955741959 1.91249870432678 1.91250041051458 3.34756334434277 3.21253870941268 2472877.653359924 3.21659846909994 175.461332523588 23.4339858197952 -83.0533168360135 2002791.84226374 T 12 CATAB v2.0e-lin.ifort 2019-Jul-14 12:23:39 2019-Jul-14 12:23
2105-Feb-11 01:12 00:06 Jupiter 1.95817039761929 1.95816875396584 1.9581720412851 3.49778703388133 3.3718537756255 2489936.550112498 6.4573394351985 290.327209913557 27.7454346520978 -77.531786563599 2055887.51534402 T 12 CATAB v2.0e-lin.ifort 2019-Jul-14 12:23:39 2019-Jul-14 12:23
2142-Aug-20 00:12 00:09 Jupiter 1.95294999206528 1.95294859961361 1.95295138452493 3.41862723878313 3.28931351750158 2503640.508364760 9.2388208152269 252.157884893877 30.3345152003886 78.116007264445 2084489.34690573 T 12 CATAB v2.0e-lin.ifort 2019-Jul-14 12:23:39 2019-Jul-14 12:23
2189-May-02 11:05 00:13 Jupiter 1.90819445094733 1.9081937871405 1.90819511475438 3.31576109652288 3.17907185401775 2520697.961924699 12.6147774547743 539.98015500285 23.7300316493904 89.2902041253152 2045523.32435533 T 12 CATAB v2.0e-lin.ifort 2019-Jul-14 12:23:39 2019-Jul-14 12:23
Ephemeris | Orbit Diagram | Orbital Elements | Mission Design | Physical Parameters | Discovery Circumstances | Close-Approach Data ]
ABOUT SSD CREDITS/AWARDS PRIVACY/COPYRIGHT GLOSSARY LINKS
FirstGov 2019-Dec-07 11:52 UT
(server date/time)  
NASA Home Page
Site Manager:   Ryan S. Park
Webmaster  Alan B. Chamberlin